Weather History for Van, Turkey

Change the Weather History Date:

Thursday, February 14, 2013

  Actual Average Record
Temperature  
Mean Temperature 29 °F -  
Max Temperature 37 °F 40 °F 44 °F (2004)
Min Temperature 21 °F 22 °F 8 °F (2005)
Degree Days  
Heating Degree Days 36    
Moisture  
Dew Point 25 °F    
Average Humidity 80    
Maximum Humidity 93    
Minimum Humidity 60    
Precipitation  
Precipitation 0.00 in 0.05 in - ()
Sea Level Pressure  
Sea Level Pressure 30.22 in    
Wind  
Wind Speed 3 mph ()    
Max Wind Speed 8 mph    
Max Gust Speed -    
Visibility 4.7 miles    
Events      
Averages and records for this station are not official NWS values.
T = Trace of Precipitation, MM = Missing Value Source: Averaged Metar Reports

Daily Weather History Graph

Daily Weather History Graph

Search for Another Location

Airport:

Trip Planner

Search our weather history database for the weather conditions in past years. The results will help you decide how hot, cold, wet, or windy it might be!

Date:

Astronomy

Feb. 14, 2013 Rise Set
Actual Time 5:58 AM EET 4:43 PM EET
Civil Twilight 5:31 AM EET 5:10 PM EET
Nautical Twilight 5:00 AM EET 5:41 PM EET
Astronomical Twilight 4:29 AM EET 6:12 PM EET
Moon 7:52 AM EET (2/14) 9:19 PM EET (2/14)
Length of Visible Light 11h 39m
Length of Day
10h 44m
Waxing Crescent, 19% of the Moon is Illuminated
Feb 14
Waxing Crescent
Feb 17
First Quarter
Feb 25
Full
Mar 4
Last Quarter
Mar 11
New

Hourly Weather History & Observations

Time (EET) Temp. Windchill Dew Point Humidity Pressure Visibility Wind Dir Wind Speed Gust Speed Precip Events Conditions
12:50 AM 26.6 °F - 23.0 °F 86% 30.27 in 5.0 mi Variable 2.3 mph - N/A   Partly Cloudy
1:50 AM 24.8 °F 20.5 °F 21.2 °F 86% 30.27 in 5.0 mi East 3.5 mph - N/A   Partly Cloudy
2:00 AM 24 °F - 21 °F 84%  in 5 mi East 3.5 mph - -   Mist
2:50 AM 23.0 °F - 21.2 °F 93% 30.24 in 5.0 mi Calm Calm - N/A   Partly Cloudy
3:50 AM 23.0 °F 15.8 °F 19.4 °F 86% 30.24 in 5.0 mi ENE 5.8 mph - N/A   Partly Cloudy
4:50 AM 23.0 °F - 21.2 °F 93% 30.27 in 5.0 mi East 2.3 mph - N/A   Partly Cloudy
5:50 AM 21.2 °F 13.6 °F 17.6 °F 86% 30.27 in 5.0 mi ENE 5.8 mph - N/A   Partly Cloudy
6:50 AM 24.8 °F 19.1 °F 21.2 °F 86% 30.27 in 5.0 mi NE 4.6 mph - N/A   Scattered Clouds
7:50 AM 32.0 °F - 24.8 °F 75% 30.27 in 5.0 mi Variable 1.2 mph - N/A   Scattered Clouds
8:00 AM 33 °F - 24 °F 60%  in 5 mi SE 1.2 mph - -   Mist
8:50 AM 33.8 °F 30.8 °F 26.6 °F 75% 30.27 in 5.0 mi West 3.5 mph - N/A   Scattered Clouds
9:50 AM 33.8 °F 29.6 °F 26.6 °F 75% 30.27 in 5.0 mi West 4.6 mph - N/A   Partly Cloudy
10:50 AM 35.6 °F 30.7 °F 26.6 °F 70% 30.27 in 5.0 mi West 5.8 mph - N/A   Partly Cloudy
11:50 AM 35.6 °F 30.7 °F 26.6 °F 70% 30.24 in 5.0 mi WNW 5.8 mph - N/A   Partly Cloudy
12:50 PM 35.6 °F 29.2 °F 28.4 °F 75% 30.21 in 5.0 mi West 8.1 mph - N/A   Scattered Clouds
1:50 PM 35.6 °F 30.7 °F 28.4 °F 75% 30.21 in 5.0 mi West 5.8 mph - N/A   Partly Cloudy
2:00 PM 36 °F - 29 °F 66%  in 5 mi West 5.8 mph - -   Mist
2:50 PM 37.4 °F 33.8 °F 26.6 °F 65% 30.21 in 6.2 mi West 4.6 mph - N/A   Partly Cloudy
3:50 PM 35.6 °F 31.7 °F 26.6 °F 70% 30.21 in 6.2 mi West 4.6 mph - N/A   Partly Cloudy
4:50 PM 32.0 °F - 26.6 °F 80% 30.21 in 6.2 mi Calm Calm - N/A   Partly Cloudy
5:50 PM 32.0 °F - 28.4 °F 87% 30.18 in 2.5 mi ENE 2.3 mph - N/A   Scattered Clouds
6:50 PM 30.2 °F 26.7 °F 26.6 °F 86% 30.18 in 3.7 mi SE 3.5 mph - N/A   Scattered Clouds
7:50 PM 30.2 °F - 26.6 °F 86% 30.18 in 3.7 mi East 2.3 mph - N/A   Scattered Clouds
8:50 PM 30.2 °F 26.7 °F 28.4 °F 93% 30.18 in 2.5 mi West 3.5 mph - N/A   Scattered Clouds
9:50 PM 30.2 °F 24.3 °F 28.4 °F 93% 30.12 in 3.7 mi ENE 5.8 mph - N/A   Scattered Clouds
10:50 PM 30.2 °F 26.7 °F 26.6 °F 86% 30.12 in 3.7 mi East 3.5 mph - N/A   Scattered Clouds
11:50 PM 30.2 °F 25.4 °F 26.6 °F 86% 30.12 in 3.7 mi ENE 4.6 mph - N/A   Scattered Clouds